Regional Weather Roundup
Issued by NWS

Home | Current Version | Previous Version | Graphics & Text | Print | Product List | Glossary On
Versions: 1 2 3 4 5 6 7 8 9 10 11 12 13 14 15 16 17 18 19 20 21 22 23 24 25 26 27 28 29 30 31 32 33 34 35 36 37 38 39 40 41 42 43 44 45 46 47 48 49 50
000
ASUS43 KOAX 300902
RWRNE

WEATHER ROUNDUP FOR NEBRASKA
NATIONAL WEATHER SERVICE OMAHA NE
400 AM CDT SAT APR 30 2016

NOTES: SATELLITE DATA IS BEING USED TO AUGMENT CLOUD COVER ABOVE
       12000 FEET.
       "FAIR" INDICATES FEW OR NO CLOUDS BELOW 12,000 FEET WITH NO
       SIGNIFICANT WEATHER AND/OR OBSTRUCTIONS TO VISIBILITY.

  * THESE STATIONS DO NOT REPORT WEATHER SUCH AS RAIN...SNOW OR FOG.

NEZ001>004-019>022-054>056-301000-
NEBRASKA PANHANDLE

CITY           SKY/WX    TMP DP  RH WIND       PRES   REMARKS
SCOTTSBLUFF    LGT SNOW  33  31  92 NW6       29.92F FOG     WCI  28
ALLIANCE       LGT SNOW  32  32 100 N10       29.89R VSB 3/4 WCI  24
CHADRON        LGT RAIN  37  35  92 NE17      29.96S WCI  27
KIMBALL        LGT SNOW  31  31 100 N8        29.88S WCI  24
SIDNEY         LGT SNOW  32  31  96 N14       29.87S FOG     WCI  22
$$

NEZ057>060-069>072-079>082-301000-
SOUTHWEST NEBRASKA

CITY           SKY/WX    TMP DP  RH WIND       PRES   REMARKS
NORTH PLATTE   LGT SNOW  33  32  96 N9        29.83F FOG     WCI  25
IMPERIAL       LGT SNOW  33  32  96 N13       29.83F FOG     WCI  24
MCCOOK         LGT RAIN  37  35  92 N12       29.80S FOG     WCI  29
$$

NEZ005>010-023>029-035>040-094-301000-
NORTH CENTRAL NEBRASKA

CITY           SKY/WX    TMP DP  RH WIND       PRES   REMARKS
VALENTINE      LGT RAIN  40  37  89 NE15      29.90F WCI  32
AINSWORTH      LGT RAIN  40  39  97 NE15      29.88F WCI  32
BROKEN BOW     RAIN      37  36  96 NE9       29.82F FOG     WCI  30
ORD            HVY RAIN  40  39  97 E9        29.82R FOG     WCI  34
$$

NEZ041-046>049-061>064-073>077-083>087-301000-
SOUTH CENTRAL NEBRASKA

CITY           SKY/WX    TMP DP  RH WIND       PRES   REMARKS
GRAND ISLAND   RAIN      42  41  96 NE12      29.78S FOG
AURORA         RAIN      42  42  99 NE14      29.77F
HASTINGS       LGT RAIN  42  40  92 NE13      29.75F FOG
KEARNEY *      CLOUDY    41  37  87 NE13      29.78F
YORK           HVY RAIN  43  41  93 NE12      29.76F
$$

NEZ011>018-030>034-042>045-301000-
NORTHEAST NEBRASKA

CITY           SKY/WX    TMP DP  RH WIND       PRES   REMARKS
NORFOLK        CLOUDY    42  38  85 NE16      29.80F
ALBION         RAIN      41  39  93 NE15G22   29.79F
BLAIR          RAIN      45  43  94 NE21      29.77F
COLUMBUS *     CLOUDY    43  36  75 NE15      29.79S
FREMONT        RAIN      44  43  97 NE15G26   29.78F
TEKAMAH        LGT RAIN  45  41  86 E22       29.82F
$$

NEZ050>053-065>068-078-088>093-301000-
SOUTHEAST NEBRASKA

CITY           SKY/WX    TMP DP  RH WIND       PRES   REMARKS
LINCOLN        LGT RAIN  46  44  93 E15       29.75F
OMAHA EPPLEY   LGT RAIN  46  44  93 E17G26    29.77F FOG
FALLS CITY     HVY RAIN  50  48  93 E16G28    29.67F FOG
$$

NEZ044-045-051>053-067-301000-
OMAHA AREA

CITY           SKY/WX    TMP DP  RH WIND       PRES   REMARKS
OMAHA EPPLEY   LGT RAIN  46  44  93 E17G26    29.77F FOG
BLAIR          RAIN      45  43  94 NE21      29.77F
FREMONT        RAIN      44  43  97 NE15G26   29.78F
OFFUTT AFB     CLOUDY    46  45  98 NE17G28   29.75F
WAHOO          RAIN      45  43  94 E18G25    29.76F
$$



USA.gov is the U.S. government's official web portal to all federal, state and local government web resources and services.